Content
SEND FEEDBACK

Daily
Averages
Monthly
Summary
United States of America

ALBANY, NEW YORK


Home > North America > United States > New York
Elevation: 275 feet     Latitude: 42 45N     Longitude: 073 48W

WEATHER
 
SELECT A DAY
Number of Records: 206,264;   Date Range: 1/1/95 - 7/7/14
 
SHARE

PRINT THIS DATA

[ ← Previous Day ]
WEATHER ALMANAC - NOVEMBER 5, 2013
[ Next Day → ]
[ °C ]   °F
Weather ElementAverageHighLow
Temperature41.6 °F52 °F (2:51 pm)25 °F (4:51 am)
Dewpoint28.6 °F36 °F (11:51 pm)19.9 °F (4:51 am)
Humidity61.2 %81 % (4:51 am)47 % (2:51 pm)
Barometer30.58 in30.67 in (4:51 am)30.46 in (11:51 pm)
Wind Speed5.9 mph12.7 mph (1:51 pm)
Wind Gust18.4 mph (10:51 am)
Weather ElementAverage
Visibility10 mi
Wind DirectionESE (120.4 °)

Weather ElementTotal
Precipitation---
Heating Degree Days26.5 (Base 65)
Averaged from 23 records on November 5, 2013
WEATHER CONDITIONS BREAKOUT
WIND DIRECTION BREAKOUT
WEATHER BY HOUR - NOVEMBER 5, 2013
[ °C ]   °F
Local TimeTemperatureDewpointHumidityBarometerVisibilityWind DirectionWind SpeedGust SpeedPrecipitationEventsConditions
1:51 AM28.9 °F23.0 °F78 %30.66 in10.0 miCalmOvercast
2:51 AM28.9 °F21.9 °F75 %30.66 in10.0 miCalmMostly Cloudy
3:51 AM28.0 °F21.9 °F78 %30.66 in10.0 miCalmScattered Clouds
4:51 AM25.0 °F19.9 °F81 %30.67 in10.0 miCalmScattered Clouds
5:51 AM26.1 °F21.0 °F81 %30.66 in10.0 miCalmMostly Cloudy
6:51 AM28.0 °F23.0 °F81 %30.65 in10.0 miCalmMostly Cloudy
7:51 AM30.9 °F23.0 °F72 %30.66 in10.0 miSouth (180°)3.5 mphScattered Clouds
8:51 AM37.9 °F23.0 °F55 %30.65 in10.0 miSSE (150°)6.9 mphPartly Cloudy
9:51 AM42.1 °F25.0 °F51 %30.65 in10.0 miSSE (160°)11.5 mphScattered Clouds
10:51 AM45.0 °F27.0 °F49 %30.63 in10.0 miSSE (160°)11.5 mph18.4 mphScattered Clouds
11:51 AM46.9 °F28.9 °F50 %30.61 in10.0 miSouth (170°)11.5 mphMostly Cloudy
12:51 PM48.9 °F30.0 °F48 %30.58 in10.0 miSSE (150°)10.4 mphMostly Cloudy
1:51 PM50.0 °F30.9 °F48 %30.56 in10.0 miSSE (160°)12.7 mphMostly Cloudy
2:51 PM52.0 °F32.0 °F47 %30.54 in10.0 miSSE (160°)8.1 mphMostly Cloudy
3:51 PM50.0 °F33.1 °F52 %30.53 in10.0 miSouth (170°)6.9 mphMostly Cloudy
4:51 PM50.0 °F33.1 °F52 %30.53 in10.0 miSouth (170°)8.1 mphMostly Cloudy
5:51 PM50.0 °F33.1 °F52 %30.52 in10.0 miSSE (160°)6.9 mphMostly Cloudy
6:51 PM48.9 °F33.1 °F54 %30.52 in10.0 miSSE (160°)5.8 mphOvercast
7:51 PM48.0 °F34.0 °F58 %30.53 in10.0 miSouth (170°)6.9 mphOvercast
8:51 PM48.0 °F34.0 °F58 %30.51 in10.0 miSSE (160°)3.5 mphOvercast
9:51 PM48.0 °F35.1 °F61 %30.51 in10.0 miSouth (170°)8.1 mphOvercast
10:51 PM48.0 °F35.1 °F61 %30.48 in10.0 miSSE (160°)6.9 mphOvercast
11:51 PM46.9 °F36.0 °F66 %30.46 in10.0 miSSE (160°)5.8 mphOvercast
Hourly data recorded from KALB, located miles away from Albany, New York







STORIES FROM OUR PARTNERS